Harvey, ND

10:17 AM CST on November 21, 2017 (GMT -0600)
Harvey

Weather History for K5H4 - March, 2012

Change the Weather History Date:

Sunday, March 18, 2012

  Actual Average (KRUG) Record (KRUG)
Temperature  
Mean Temperature 57 °F -  
Max Temperature 73 °F 36 °F 69 °F (2012)
Min Temperature 41 °F 19 °F -14 °F (1989)
Degree Days  
Heating Degree Days 8    
Growing Degree Days 7 (Base 50)    
Moisture  
Dew Point 50 °F    
Average Humidity 86    
Maximum Humidity 100    
Minimum Humidity 50    
Precipitation  
Precipitation 0.00 in - - ()
Sea Level Pressure  
Sea Level Pressure 29.40 in    
Wind  
Wind Speed 12 mph (SE)    
Max Wind Speed 22 mph    
Max Gust Speed 29 mph    
Visibility 6 miles    
Events Fog , Rain    
Averages and records for this station are not official NWS values.
T = Trace of Precipitation, MM = Missing Value Source: NWS Daily Summary

Daily Weather History Graph

Daily Weather History Graph

Search for Another Location

Airport or City:

Trip Planner

Search our weather history database for the weather conditions in past years. The results will help you decide how hot, cold, wet, or windy it might be!

Date:

Astronomy

Mar. 18, 2012 Rise Set
Actual Time 7:45 AM CDT 7:50 PM CDT
Civil Twilight 7:14 AM CDT 8:21 PM CDT
Nautical Twilight 6:38 AM CDT 8:57 PM CDT
Astronomical Twilight 6:01 AM CDT 9:34 PM CDT
Moon 5:40 AM CDT (3/18) 4:05 PM CDT (3/18)
Length of Visible Light 13h 06m
Length of Day
12h 04m
Waning Crescent, 15% of the Moon is Illuminated
Mar 18
Waning Crescent
Mar 22
New
Mar 30
First Quarter
Apr 6
Full
Apr 13
Last Quarter

Hourly Weather History & Observations

Time (CDT) Temp. Windchill Dew Point Humidity Pressure Visibility Wind Dir Wind Speed Gust Speed Precip Events Conditions
12:15 AM 48.2 °F - 48.2 °F 100% 29.52 in 1.2 mi ESE 10.4 mph - N/A   Overcast
12:35 AM 48.2 °F - 48.2 °F 100% 29.51 in 1.0 mi ESE 12.7 mph - N/A   Overcast
12:55 AM 48.2 °F - 48.2 °F 100% 29.51 in 0.5 mi SE 13.8 mph - N/A Fog Fog
1:15 AM 48.2 °F - 48.2 °F 100% 29.50 in 0.2 mi ESE 11.5 mph - N/A Fog Fog
1:35 AM 48.2 °F - 48.2 °F 100% 29.49 in 0.2 mi ESE 11.5 mph - N/A Fog Fog
1:55 AM 46.4 °F 41.1 °F 46.4 °F 100% 29.49 in 0.2 mi ESE 11.5 mph - N/A Rain Light Rain
2:15 AM 46.4 °F 41.5 °F 46.4 °F 100% 29.48 in 0.2 mi ESE 10.4 mph - N/A Rain Light Rain
2:35 AM 46.4 °F 41.5 °F 46.4 °F 100% 29.47 in 0.2 mi ESE 10.4 mph - N/A Fog Fog
2:55 AM 46.4 °F 41.5 °F 46.4 °F 100% 29.47 in 0.2 mi ESE 10.4 mph - N/A Fog Fog
3:15 AM 44.6 °F 39.7 °F 44.6 °F 100% 29.47 in 1.2 mi ESE 9.2 mph - N/A   Mostly Cloudy
3:35 AM 44.6 °F 38.8 °F 44.6 °F 100% 29.47 in 2.0 mi SE 11.5 mph - N/A   Clear
3:55 AM 46.4 °F 41.5 °F 46.4 °F 100% 29.46 in 3.0 mi ESE 10.4 mph - N/A   Clear
4:15 AM 44.6 °F 39.2 °F 44.6 °F 100% 29.45 in 3.0 mi ESE 10.4 mph - N/A   Clear
4:35 AM 44.6 °F 39.2 °F 44.6 °F 100% 29.44 in 3.0 mi ESE 10.4 mph - N/A   Clear
4:55 AM 44.6 °F 38.4 °F 44.6 °F 100% 29.44 in 2.5 mi ESE 12.7 mph - N/A   Clear
5:15 AM 44.6 °F 39.2 °F 44.6 °F 100% 29.44 in 2.0 mi ESE 10.4 mph - N/A   Clear
5:35 AM 41.0 °F 35.8 °F 41.0 °F 100% 29.44 in 1.5 mi ESE 8.1 mph - N/A   Clear
5:55 AM 41.0 °F 35.8 °F 41.0 °F 100% 29.43 in 1.0 mi ESE 8.1 mph - N/A   Clear
6:15 AM 41.0 °F 34.7 °F 41.0 °F 100% 29.42 in 1.8 mi ESE 10.4 mph - N/A   Clear
6:35 AM 41.0 °F 34.3 °F 41.0 °F 100% 29.41 in 2.0 mi ESE 11.5 mph - N/A   Clear
6:55 AM 41.0 °F 34.3 °F 41.0 °F 100% 29.41 in 2.0 mi SE 11.5 mph - N/A   Clear
7:15 AM 44.6 °F 38.4 °F 44.6 °F 100% 29.41 in 2.5 mi ESE 12.7 mph - N/A   Clear
7:35 AM 42.8 °F 37.0 °F 42.8 °F 100% 29.40 in 2.5 mi SE 10.4 mph - N/A   Clear
7:55 AM 44.6 °F 39.2 °F 44.6 °F 100% 29.41 in 3.0 mi SE 10.4 mph - N/A   Clear
8:15 AM 44.6 °F 39.2 °F 44.6 °F 100% 29.41 in 3.0 mi SE 10.4 mph - N/A   Clear
8:35 AM 42.8 °F 38.6 °F 42.8 °F 100% 29.41 in 2.5 mi ESE 6.9 mph - N/A   Clear
8:55 AM 44.6 °F 41.4 °F 44.6 °F 100% 29.41 in 2.5 mi SE 5.8 mph - N/A   Clear
9:15 AM 44.6 °F 42.2 °F 44.6 °F 100% 29.41 in 3.0 mi ESE 4.6 mph - N/A   Clear
9:35 AM 46.4 °F 44.3 °F 46.4 °F 100% 29.41 in 5.0 mi SE 4.6 mph - N/A   Clear
9:55 AM 48.2 °F - 48.2 °F 100% 29.41 in 6.0 mi SE 6.9 mph - N/A   Clear
10:15 AM 50.0 °F - 50.0 °F 100% 29.41 in 7.0 mi SE 6.9 mph - N/A   Clear
10:35 AM 53.6 °F - 53.6 °F 100% 29.41 in 8.0 mi SE 9.2 mph - N/A   Clear
10:55 AM 53.6 °F - 53.6 °F 100% 29.41 in 6.0 mi SSE 9.2 mph - N/A   Mostly Cloudy
11:15 AM 55.4 °F - 55.4 °F 100% 29.40 in 6.0 mi South 16.1 mph 20.7 mph N/A   Overcast
11:35 AM 57.2 °F - 57.2 °F 100% 29.40 in 9.0 mi SSE 16.1 mph 21.9 mph N/A   Overcast
11:55 AM 59.0 °F - 57.2 °F 94% 29.40 in 10.0 mi SSE 15.0 mph 21.9 mph N/A   Overcast
12:15 PM 60.8 °F - 57.2 °F 88% 29.40 in 10.0 mi South 16.1 mph 24.2 mph N/A   Mostly Cloudy
12:35 PM 62.6 °F - 57.2 °F 82% 29.39 in 10.0 mi SSE 18.4 mph 21.9 mph N/A   Mostly Cloudy
12:55 PM 64.4 °F - 57.2 °F 77% 29.38 in 10.0 mi SSE 17.3 mph 21.9 mph N/A   Scattered Clouds
1:15 PM 64.4 °F - 55.4 °F 73% 29.38 in 10.0 mi SSE 18.4 mph 23.0 mph N/A   Clear
1:35 PM 66.2 °F - 55.4 °F 68% 29.37 in 10.0 mi SSE 19.6 mph 28.8 mph N/A   Clear
1:55 PM 68.0 °F - 55.4 °F 64% 29.37 in 10.0 mi SSE 15.0 mph 25.3 mph N/A   Clear
2:35 PM 68.0 °F - 55.4 °F 64% 29.35 in 10.0 mi South 21.9 mph 26.5 mph N/A   Clear
2:55 PM 69.8 °F - 57.2 °F 64% 29.35 in 10.0 mi SSE 21.9 mph 27.6 mph N/A   Clear
3:15 PM 69.8 °F - 57.2 °F 64% 29.35 in 10.0 mi SSE 20.7 mph 28.8 mph N/A   Clear
3:55 PM 71.6 °F - 55.4 °F 57% 29.36 in 10.0 mi SSE 16.1 mph 26.5 mph N/A   Partly Cloudy
4:15 PM 71.6 °F - 55.4 °F 57% 29.35 in 10.0 mi South 19.6 mph 27.6 mph N/A   Scattered Clouds
4:35 PM 71.6 °F - 57.2 °F 60% 29.34 in 10.0 mi SSE 20.7 mph 24.2 mph N/A   Partly Cloudy
5:15 PM 73.4 °F - 55.4 °F 53% 29.33 in 10.0 mi South 19.6 mph 25.3 mph N/A   Clear
5:35 PM 73.4 °F - 55.4 °F 53% 29.33 in 10.0 mi South 18.4 mph 26.5 mph N/A   Clear
5:55 PM 73.4 °F - 55.4 °F 53% 29.33 in 10.0 mi SSE 17.3 mph 21.9 mph N/A   Clear
6:15 PM 73.4 °F - 53.6 °F 50% 29.33 in 10.0 mi SSE 12.7 mph 21.9 mph N/A   Clear
6:35 PM 73.4 °F - 53.6 °F 50% 29.33 in 10.0 mi SSE 10.4 mph - N/A   Clear
6:55 PM 71.6 °F - 53.6 °F 53% 29.33 in 10.0 mi SE 6.9 mph - N/A   Clear
7:15 PM 69.8 °F - 53.6 °F 56% 29.33 in 10.0 mi SE 6.9 mph - N/A   Clear
7:35 PM 66.2 °F - 53.6 °F 64% 29.33 in 10.0 mi ESE 8.1 mph - N/A   Clear
7:55 PM 62.6 °F - 53.6 °F 72% 29.33 in 10.0 mi ESE 6.9 mph - N/A   Clear
8:15 PM 62.6 °F - 53.6 °F 72% 29.33 in 10.0 mi ESE 8.1 mph - N/A   Clear
8:35 PM 59.0 °F - 53.6 °F 82% 29.32 in 10.0 mi ESE 10.4 mph - N/A   Clear
8:55 PM 57.2 °F - 53.6 °F 88% 29.33 in 10.0 mi ESE 9.2 mph - N/A   Clear
9:15 PM 55.4 °F - 50.0 °F 82% 29.32 in 10.0 mi ESE 9.2 mph - N/A   Clear
9:35 PM 53.6 °F - 50.0 °F 88% 29.32 in 10.0 mi SE 6.9 mph - N/A   Clear
9:55 PM 57.2 °F - 51.8 °F 82% 29.32 in 10.0 mi SE 8.1 mph - N/A   Clear
10:15 PM 59.0 °F - 53.6 °F 82% 29.31 in 10.0 mi SE 6.9 mph - N/A   Clear
10:35 PM 55.4 °F - 51.8 °F 88% 29.31 in 10.0 mi ESE 10.4 mph - N/A   Clear
11:15 PM 53.6 °F - 51.8 °F 94% 29.30 in 10.0 mi ESE 10.4 mph - N/A   Clear
11:35 PM 55.4 °F - 51.8 °F 88% 29.30 in 10.0 mi SE 8.1 mph - N/A   Clear